Wolf Creek Pass, CO

3:33 PM MDT on August 20, 2017 (GMT -0600)
Wolf Creek Pass

Weather History for KCPW - December, 2012

Change the Weather History Date:

Wednesday, December 5, 2012

  Actual Average (KALS) Record (KALS)
Temperature  
Mean Temperature 30 °F -  
Max Temperature 33 °F 40 °F 59 °F (1958)
Min Temperature 26 °F 4 °F -26 °F (1964)
Degree Days  
Heating Degree Days 36    
Moisture  
Dew Point 18 °F    
Average Humidity 61    
Maximum Humidity 69    
Minimum Humidity 51    
Precipitation  
Precipitation 0.00 in - - ()
Sea Level Pressure  
Sea Level Pressure 30.36 in    
Wind  
Wind Speed 13 mph (SW)    
Max Wind Speed 25 mph    
Max Gust Speed 32 mph    
Visibility 10 miles    
Events      
Averages and records for this station are not official NWS values.
T = Trace of Precipitation, MM = Missing Value Source: NWS Daily Summary

Daily Weather History Graph

Daily Weather History Graph

Search for Another Location

Airport or City:

Trip Planner

Search our weather history database for the weather conditions in past years. The results will help you decide how hot, cold, wet, or windy it might be!

Date:

Astronomy

Dec. 05, 2012 Rise Set
Actual Time 7:07 AM MST 4:48 PM MST
Civil Twilight 6:38 AM MST 5:17 PM MST
Nautical Twilight 6:05 AM MST 5:50 PM MST
Astronomical Twilight 5:33 AM MST 6:22 PM MST
Moon 11:35 PM MST (12/5) 11:37 AM MST (12/5)
Length of Visible Light 10h 39m
Length of Day
9h 41m
Waning Gibbous, 59% of the Moon is Illuminated
Dec 5
Waning Gibbous
Dec 6
Last Quarter
Dec 13
New
Dec 19
First Quarter
Dec 28
Full

Hourly Weather History & Observations

Time (MST) Temp. Windchill Dew Point Humidity Pressure Visibility Wind Dir Wind Speed Gust Speed Precip Events Conditions
12:02 AM 30.2 °F 23.4 °F 19.4 °F 64% 30.50 in 10.0 mi West 6.9 mph - N/A   Clear
12:22 AM 32.0 °F 27.5 °F 19.4 °F 60% 30.50 in 10.0 mi West 4.6 mph - N/A   Clear
12:42 AM 32.0 °F 27.5 °F 19.4 °F 60% 30.49 in 10.0 mi NNW 4.6 mph - N/A   Clear
1:02 AM 32.0 °F 27.5 °F 19.4 °F 60% 30.49 in 10.0 mi NNW 4.6 mph - N/A   Clear
1:22 AM 32.0 °F 27.5 °F 19.4 °F 60% 30.49 in 10.0 mi North 4.6 mph - N/A   Clear
1:42 AM 32.0 °F 24.8 °F 19.4 °F 60% 30.48 in 10.0 mi NNW 8.1 mph - N/A   Clear
2:02 AM 32.0 °F 26.4 °F 17.6 °F 55% 30.47 in 10.0 mi NW 5.8 mph - N/A   Clear
2:22 AM 32.0 °F 24.2 °F 19.4 °F 60% 30.47 in 10.0 mi SW 9.2 mph - N/A   Clear
2:42 AM 30.2 °F 23.4 °F 19.4 °F 64% 30.47 in 10.0 mi SSW 6.9 mph - N/A   Clear
3:02 AM 32.0 °F 24.2 °F 19.4 °F 60% 30.47 in 10.0 mi SW 9.2 mph - N/A   Clear
3:22 AM 32.0 °F 24.2 °F 19.4 °F 60% 30.47 in 10.0 mi SW 9.2 mph - N/A   Clear
3:42 AM 30.2 °F 21.9 °F 17.6 °F 60% 30.46 in 10.0 mi SSW 9.2 mph - N/A   Clear
4:02 AM 28.4 °F 19.1 °F 17.6 °F 64% 30.46 in 10.0 mi SW 10.4 mph - N/A   Clear
4:22 AM 30.2 °F 20.8 °F 17.6 °F 60% 30.46 in 10.0 mi SW 11.5 mph - N/A   Clear
4:42 AM 28.4 °F 17.5 °F 17.6 °F 64% 30.46 in 10.0 mi SW 13.8 mph - N/A   Clear
5:02 AM 28.4 °F 18.0 °F 17.6 °F 64% 30.45 in 10.0 mi SW 12.7 mph - N/A   Clear
5:22 AM 26.6 °F 15.7 °F 15.8 °F 64% 30.45 in 10.0 mi SW 12.7 mph - N/A   Clear
5:42 AM 28.4 °F 17.0 °F 17.6 °F 64% 30.45 in 10.0 mi SW 15.0 mph - N/A   Clear
6:02 AM 30.2 °F 20.2 °F 19.4 °F 64% 30.45 in 10.0 mi SW 12.7 mph - N/A   Clear
7:42 AM 28.4 °F 17.0 °F 17.6 °F 64% 30.44 in 10.0 mi SW 15.0 mph - N/A   Clear
8:02 AM 28.4 °F 15.4 °F 19.4 °F 69% 30.44 in 10.0 mi SW 19.6 mph - N/A   Clear
8:22 AM 30.2 °F 17.8 °F 19.4 °F 64% 30.44 in 10.0 mi SW 19.6 mph - N/A   Clear
8:42 AM 32.0 °F 20.8 °F 21.2 °F 64% 30.44 in 10.0 mi SW 17.3 mph 23.0 mph N/A   Clear
9:02 AM 32.0 °F 20.8 °F 21.2 °F 64% 30.44 in 10.0 mi SW 17.3 mph - N/A   Clear
9:22 AM 32.0 °F 21.6 °F 21.2 °F 64% 30.44 in 10.0 mi SW 15.0 mph - N/A   Clear
9:42 AM 32.0 °F 23.0 °F 21.2 °F 64% 30.44 in 10.0 mi SW 11.5 mph 20.7 mph N/A   Clear
10:02 AM 33.8 °F 24.3 °F 21.2 °F 60% 30.43 in 10.0 mi SSW 13.8 mph 18.4 mph N/A   Clear
10:22 AM 33.8 °F 24.8 °F 21.2 °F 60% 30.42 in 10.0 mi SW 12.7 mph 20.7 mph N/A   Clear
10:42 AM 33.8 °F 25.3 °F 23.0 °F 65% 30.42 in 10.0 mi SSW 11.5 mph 24.2 mph N/A   Clear
11:02 AM 33.8 °F 24.8 °F 23.0 °F 65% 30.41 in 10.0 mi SW 12.7 mph 24.2 mph N/A   Clear
11:22 AM 33.8 °F 22.5 °F 23.0 °F 65% 30.40 in 10.0 mi SW 19.6 mph 25.3 mph N/A   Clear
11:42 AM 33.8 °F 23.2 °F 23.0 °F 65% 30.39 in 10.0 mi SW 17.3 mph 26.5 mph N/A   Clear
12:02 PM 33.8 °F 23.9 °F 23.0 °F 65% 30.37 in 10.0 mi SSW 15.0 mph 29.9 mph N/A   Clear
12:22 PM 32.0 °F 21.6 °F 23.0 °F 69% 30.36 in 10.0 mi SSW 15.0 mph 27.6 mph N/A   Clear
12:42 PM 33.8 °F 23.2 °F 23.0 °F 65% 30.35 in 10.0 mi SSW 17.3 mph 25.3 mph N/A   Clear
1:02 PM 33.8 °F 24.8 °F 21.2 °F 60% 30.34 in 10.0 mi SSW 12.7 mph 24.2 mph N/A   Clear
1:22 PM 33.8 °F 23.5 °F 21.2 °F 60% 30.33 in 10.0 mi SW 16.1 mph 26.5 mph N/A   Clear
1:42 PM 33.8 °F 24.3 °F 19.4 °F 56% 30.32 in 10.0 mi SSW 13.8 mph 26.5 mph N/A   Clear
2:02 PM 33.8 °F 23.2 °F 19.4 °F 56% 30.30 in 10.0 mi SSW 17.3 mph 26.5 mph N/A   Clear
2:22 PM 32.0 °F 19.5 °F 19.4 °F 60% 30.30 in 10.0 mi SW 21.9 mph 28.8 mph N/A   Clear
2:42 PM 32.0 °F 23.0 °F 19.4 °F 60% 30.31 in 10.0 mi SSW 11.5 mph 25.3 mph N/A   Clear
3:02 PM 32.0 °F 20.8 °F 17.6 °F 55% 30.31 in 10.0 mi SW 17.3 mph 25.3 mph N/A   Clear
3:22 PM 32.0 °F 20.5 °F 17.6 °F 55% 30.29 in 10.0 mi SSW 18.4 mph 27.6 mph N/A   Clear
3:42 PM 32.0 °F 20.1 °F 17.6 °F 55% 30.29 in 10.0 mi SSW 19.6 mph 31.1 mph N/A   Clear
4:02 PM 30.2 °F 20.8 °F 17.6 °F 60% 30.29 in 10.0 mi SSW 11.5 mph 27.6 mph N/A   Clear
4:22 PM 30.2 °F 16.5 °F 17.6 °F 60% 30.28 in 10.0 mi SW 24.2 mph 32.2 mph N/A   Clear
4:42 PM 28.4 °F 15.4 °F 15.8 °F 59% 30.28 in 10.0 mi SW 19.6 mph 31.1 mph N/A   Clear
5:02 PM 28.4 °F 14.1 °F 15.8 °F 59% 30.27 in 10.0 mi SW 24.2 mph 31.1 mph N/A   Clear
5:22 PM 28.4 °F 14.7 °F 15.8 °F 59% 30.27 in 10.0 mi SW 21.9 mph 29.9 mph N/A   Clear
5:42 PM 26.6 °F 13.1 °F 15.8 °F 64% 30.27 in 10.0 mi SW 19.6 mph 28.8 mph N/A   Clear
6:02 PM 26.6 °F 13.4 °F 14.0 °F 59% 30.27 in 10.0 mi SW 18.4 mph 28.8 mph N/A   Clear
6:22 PM 26.6 °F 12.0 °F 14.0 °F 59% 30.27 in 10.0 mi SW 23.0 mph 29.9 mph N/A   Clear
6:42 PM 26.6 °F 12.0 °F 14.0 °F 59% 30.27 in 10.0 mi SW 23.0 mph 26.5 mph N/A   Clear
7:02 PM 26.6 °F 13.1 °F 14.0 °F 59% 30.27 in 10.0 mi SW 19.6 mph - N/A   Clear
7:22 PM 26.6 °F 13.1 °F 14.0 °F 59% 30.27 in 10.0 mi SW 19.6 mph - N/A   Clear
7:42 PM 26.6 °F 13.1 °F 14.0 °F 59% 30.27 in 10.0 mi SW 19.6 mph - N/A   Clear
8:02 PM 26.6 °F 12.7 °F 14.0 °F 59% 30.26 in 10.0 mi SW 20.7 mph - N/A   Clear
8:22 PM 26.6 °F 11.7 °F 14.0 °F 59% 30.26 in 10.0 mi SW 24.2 mph - N/A   Clear
8:42 PM 26.6 °F 12.4 °F 15.8 °F 64% 30.25 in 10.0 mi SW 21.9 mph - N/A   Clear
9:02 PM 26.6 °F 12.4 °F 15.8 °F 64% 30.24 in 10.0 mi SW 21.9 mph - N/A   Clear
9:22 PM 26.6 °F 12.7 °F 14.0 °F 59% 30.24 in 10.0 mi SW 20.7 mph 29.9 mph N/A   Clear
9:42 PM 28.4 °F 14.1 °F 14.0 °F 55% 30.24 in 10.0 mi SW 24.2 mph 31.1 mph N/A   Clear
10:02 PM 28.4 °F 13.8 °F 12.2 °F 51% 30.24 in 10.0 mi SW 25.3 mph 31.1 mph N/A   Mostly Cloudy
10:22 PM 28.4 °F 14.7 °F 14.0 °F 55% 30.23 in 10.0 mi SW 21.9 mph 27.6 mph N/A   Overcast
10:42 PM 26.6 °F 13.1 °F 14.0 °F 59% 30.23 in 10.0 mi SW 19.6 mph 26.5 mph N/A   Mostly Cloudy
11:03 PM 26.6 °F 12.7 °F 14.0 °F 59% 30.22 in 10.0 mi SW 20.7 mph - N/A   Overcast
11:22 PM 26.6 °F 12.0 °F 14.0 °F 59% 30.22 in 10.0 mi SW 23.0 mph - N/A   Overcast
11:42 PM 26.6 °F 12.7 °F 14.0 °F 59% 30.22 in 10.0 mi SW 20.7 mph 26.5 mph N/A   Overcast